Location: B?dimalle
(17.1788°N, 80.5377°E)
Time: 21:59:16
(UTC+00:00)

Tiros 1 - All Passes

Search period start: 17 February 2026 00:00
Search period end: 27 February 2026 00:00
Orbit: 618 x 649 km, 48.4° (Epoch: 17 February)

Date Brightness Start Highest point End Pass type
(mag) Time Alt. Az. Time Alt. Az. Time Alt. Az.
17 Feb - 01:22:33 10° SW 01:27:12 75° SE 01:31:47 10° NE daylight
17 Feb - 03:07:38 10° WNW 03:09:19 12° NW 03:11:01 10° NNW daylight
17 Feb - 10:03:36 10° N 10:06:44 18° NE 10:09:53 10° E daylight
17 Feb - 11:44:21 10° WNW 11:48:39 42° SW 11:52:59 10° SSE daylight
18 Feb - 00:03:54 10° S 00:07:10 19° SE 00:10:26 10° E visible
18 Feb - 01:44:31 10° WSW 01:48:50 38° NW 01:53:07 10° NNE daylight
18 Feb - 10:24:10 10° NNW 10:28:32 46° NE 10:32:55 10° ESE daylight
18 Feb - 12:07:33 10° W 12:10:07 15° SW 12:12:43 10° SSW daylight
19 Feb - 00:24:07 10° SSW 00:28:40 54° SE 00:33:11 10° NE visible
19 Feb - 02:07:54 10° WNW 02:10:40 16° NW 02:13:25 10° N daylight
19 Feb - 09:05:44 10° N 09:08:06 14° NE 09:10:28 10° ENE daylight
19 Feb - 10:45:40 10° NW 10:50:08 60° SW 10:54:38 10° SSE daylight
19 Feb - 23:06:18 10° SSE 23:08:40 14° SE 23:11:01 10° E visible
20 Feb - 00:45:43 10° WSW 00:50:16 52° NW 00:54:46 10° NNE daylight
20 Feb - 09:25:50 10° NNW 09:29:58 34° NE 09:34:06 10° ESE daylight
20 Feb - 11:08:16 10° W 11:11:37 20° SW 11:15:00 10° S daylight
20 Feb - 23:25:47 10° SSW 23:30:08 39° SE 23:34:27 10° ENE visible
21 Feb - 01:08:34 10° W 01:12:01 20° NW 01:15:27 10° N daylight
21 Feb - 08:08:33 10° NNE 08:09:25 10° NE 08:10:18 10° NE daylight
21 Feb - 09:47:04 10° NW 09:51:36 84° SW 09:56:09 10° SE daylight
21 Feb - 23:47:01 10° SW 23:51:41 72° NW 23:56:19 10° NE visible
22 Feb - 08:27:34 10° NNW 08:31:21 26° NE 08:35:09 10° E daylight
22 Feb - 10:09:14 10° WNW 10:13:07 28° SW 10:17:00 10° S daylight
22 Feb - 22:27:35 10° S 22:31:36 28° SE 22:35:36 10° ENE visible
23 Feb - 00:09:27 10° WSW 00:13:23 26° NW 00:17:18 10° NNE visible
23 Feb - 08:48:32 10° NW 08:53:04 71° NE 08:57:35 10° SE daylight
23 Feb - 22:48:26 10° SW 22:53:07 83° SE 22:57:46 10° NE visible
24 Feb - 00:34:01 10° NW 00:35:19 11° NW 00:36:36 10° NNW visible
24 Feb - 07:29:25 10° N 07:32:44 20° NE 07:36:02 10° E daylight
24 Feb - 09:10:23 10° WNW 09:14:36 38° SW 09:18:49 10° SSE daylight
24 Feb - 21:29:33 10° S 21:33:04 21° SE 21:36:35 10° ENE night (unlit)
24 Feb - 23:10:29 10° WSW 23:14:46 35° NW 23:19:01 10° NNE visible
25 Feb - 07:50:05 10° NNW 07:54:29 51° NE 07:58:54 10° ESE daylight
25 Feb - 09:33:52 10° W 09:36:03 13° SW 09:38:15 10° SSW daylight
25 Feb - 21:49:56 10° SSW 21:54:33 60° SE 21:59:09 10° NE visible
25 Feb - 23:34:02 10° WNW 23:36:36 15° NW 23:39:11 10° N visible
26 Feb - 06:31:26 10° N 06:34:05 15° NE 06:36:42 10° ENE daylight
26 Feb - 08:11:39 10° NW 08:16:04 53° SW 08:20:29 10° SSE daylight
26 Feb - 20:31:47 10° SSE 20:34:32 15° SE 20:37:17 10° E night (unlit)
26 Feb - 22:11:38 10° WSW 22:16:09 47° NW 22:20:39 10° NNE visible
